DW7027 Weather Reports


Display with metric or nautical units.
time (UTC)temp
F
wind
direction
speed
MPH
gust
MPH
rain 1hr
in
rain 24hr
in
rain mn
in
humidity
%
barometer
mb
20260505223704 61 172 7.0 15.0 0.00 0.00 0.00 61 1010.4
20260505223204 62 187 6.0 13.0 0.00 0.00 0.00 61 1010.4
20260505222204 62 185 6.0 13.0 0.00 0.00 0.00 60 1010.6
20260505221703 62 187 7.0 13.0 0.00 0.00 0.00 60 1010.2
20260505221204 62 171 7.0 18.0 0.00 0.00 0.00 60 1010.1
20260505220704 62 183 5.0 13.0 0.00 0.00 0.00 59 1010.2
20260505220204 62 181 6.0 13.0 0.00 0.00 0.00 59 1009.9
20260505215703 62 172 7.0 12.0 0.00 0.00 0.00 58 1010.4
20260505215205 63 177 7.0 15.0 0.00 0.00 0.00 58 1010.1
20260505214704 63 169 7.0 13.0 0.00 0.00 0.00 58 1010.1
20260505214204 63 174 5.0 14.0 0.00 0.00 0.00 58 1010.0
20260505213204 63 170 7.0 15.0 0.00 0.00 0.00 57 1010.0
20260505212704 63 139 7.0 14.0 0.00 0.00 0.00 57 1010.0
20260505212204 63 172 6.0 14.0 0.00 0.00 0.00 57 1010.1
20260505211703 64 160 9.0 14.0 0.00 0.00 0.00 56 1010.3
20260505211204 64 185 4.0 13.0 0.00 0.00 0.00 56 1010.0
20260505210704 64 178 8.0 14.0 0.00 0.00 0.00 56 1010.0
20260505210204 64 170 7.0 13.0 0.00 0.00 0.00 56 1009.9
20260505205704 64 147 7.0 17.0 0.00 0.00 0.00 56 1010.0
20260505205204 64 165 8.0 15.0 0.00 0.00 0.00 56 1010.0
20260505204704 64 159 7.0 13.0 0.00 0.00 0.00 56 1010.1
20260505204204 64 179 6.0 13.0 0.00 0.00 0.00 55 1010.1
20260505203204 65 173 8.0 17.0 0.00 0.00 0.00 55 1010.2
20260505202204 65 182 6.0 15.0 0.00 0.00 0.00 55 1009.9
20260505201704 65 154 7.0 17.0 0.00 0.00 0.00 54 1009.9
20260505201204 65 164 6.0 12.0 0.00 0.00 0.00 54 1010.0
20260505200203 65 171 7.0 20.0 0.00 0.00 0.00 53 1010.2
20260505195704 65 154 9.0 18.0 0.00 0.00 0.00 53 1010.1
20260505194705 66 173 10.0 18.0 0.00 0.00 0.00 52 1010.2
20260505194204 66 167 7.0 16.0 0.00 0.00 0.00 52 1010.2
20260505193206 66 179 7.0 14.0 0.00 0.00 0.00 51 1009.9
20260505192706 66 167 7.0 14.0 0.00 0.00 0.00 50 1010.0
20260505192207 67 170 6.0 18.0 0.00 0.00 0.00 50 1010.1
20260505191706 67 163 6.0 20.0 0.00 0.00 0.00 49 1009.6
20260505191207 67 136 9.0 17.0 0.00 0.00 0.00 49 1009.8
20260505190706 67 156 7.0 20.0 0.00 0.00 0.00 48 1009.7
20260505190207 67 180 7.0 14.0 0.00 0.00 0.00 48 1009.8
20260505185706 67 165 9.0 18.0 0.00 0.00 0.00 47 1009.8
20260505185207 67 150 9.0 20.0 0.00 0.00 0.00 47 1009.8
20260505184706 67 171 8.0 18.0 0.00 0.00 0.00 46 1009.8
20260505184206 68 166 9.0 16.0 0.00 0.00 0.00 46 1009.8
20260505183706 68 173 9.0 20.0 0.00 0.00 0.00 46 1009.8
20260505183206 68 152 9.0 18.0 0.00 0.00 0.00 46 1009.8
20260505182706 68 161 9.0 15.0 0.00 0.00 0.00 46 1009.9
20260505182208 68 187 9.0 17.0 0.00 0.00 0.00 46 1009.7
20260505181706 68 176 9.0 18.0 0.00 0.00 0.00 46 1009.5
20260505181208 68 159 7.0 13.0 0.00 0.00 0.00 45 1009.9
20260505180707 69 180 9.0 16.0 0.00 0.00 0.00 46 1009.7
20260505180207 69 188 6.0 20.0 0.00 0.00 0.00 45 1009.4
20260505175706 69 179 12.0 20.0 0.00 0.00 0.00 45 1009.7
20260505175207 69 182 8.0 15.0 0.00 0.00 0.00 45 1009.5
20260505173706 70 188 10.0 21.0 0.00 0.00 0.00 44 1009.6
20260505173206 70 205 11.0 21.0 0.00 0.00 0.00 44 1009.8
20260505172706 71 184 9.0 26.0 0.00 0.00 0.00 44 1009.6
20260505172206 71 186 12.0 21.0 0.00 0.00 0.00 43 1009.9
20260505171706 71 180 14.0 20.0 0.00 0.00 0.00 43 1009.6
20260505171206 72 175 12.0 25.0 0.00 0.00 0.00 42 1009.9
20260505170706 72 180 10.0 25.0 0.00 0.00 0.00 42 1009.7
20260505170207 72 198 10.0 18.0 0.00 0.00 0.00 42 1009.9
20260505165706 72 186 10.0 21.0 0.00 0.00 0.00 41 1009.7
20260505165206 73 185 12.0 24.0 0.00 0.00 0.00 41 1009.7
20260505164207 74 187 10.0 20.0 0.00 0.00 0.00 40 1009.5
20260505163706 74 187 13.0 21.0 0.00 0.00 0.00 39 1009.6
20260505163206 75 199 13.0 21.0 0.00 0.00 0.00 39 1009.5
20260505162706 75 208 12.0 24.0 0.00 0.00 0.00 38 1009.3
20260505162206 76 195 17.0 29.0 0.00 0.00 0.00 37 1009.5
20260505161706 76 190 16.0 25.0 0.00 0.00 0.00 37 1009.4
20260505161206 77 183 13.0 21.0 0.00 0.00 0.00 37 1009.4
20260505160706 77 192 12.0 23.0 0.00 0.00 0.00 36 1009.2
20260505160206 78 196 12.0 24.0 0.00 0.00 0.00 36 1009.3
20260505153206 80 195 13.0 23.0 0.00 0.00 0.00 33 1009.1
20260505152706 80 196 14.0 22.0 0.00 0.00 0.00 33 1009.0
20260505152206 81 201 14.0 22.0 0.00 0.00 0.00 33 1009.1
20260505151706 81 193 12.0 24.0 0.00 0.00 0.00 33 1009.0
20260505151207 81 181 12.0 20.0 0.00 0.00 0.00 33 1009.1
20260505150706 81 194 11.0 23.0 0.00 0.00 0.00 32 1009.0
20260505140206 82 184 14.0 23.0 0.00 0.00 0.00 29 1009.7
20260505124706 80 200 14.0 22.0 0.00 0.00 0.00 28 1010.9
20260505124207 80 213 11.0 18.0 0.00 0.00 0.00 29 1010.7
20260505123706 80 185 10.0 18.0 0.00 0.00 0.00 31 1011.0
20260505123206 80 155 9.0 17.0 0.00 0.00 0.00 30 1011.0
20260505122706 80 171 10.0 20.0 0.00 0.00 0.00 29 1011.2
20260505121206 81 209 9.0 17.0 0.00 0.00 0.00 28 1011.2
20260505120707 80 191 10.0 17.0 0.00 0.00 0.00 31 1011.2
20260505120206 80 174 12.0 20.0 0.00 0.00 0.00 31 1011.3
20260505115707 79 190 9.0 20.0 0.00 0.00 0.00 34 1011.2
20260505115207 78 169 9.0 18.0 0.00 0.00 0.00 35 1011.4
20260505114706 77 123 9.0 14.0 0.00 0.00 0.00 36 1011.5
20260505114207 77 161 8.0 16.0 0.00 0.00 0.00 35 1011.6
20260505113706 77 148 7.0 15.0 0.00 0.00 0.00 35 1011.5
20260505113206 77 158 9.0 16.0 0.00 0.00 0.00 34 1011.7
20260505112706 77 180 9.0 18.0 0.00 0.00 0.00 34 1011.8
20260505111706 79 165 7.0 16.0 0.00 0.00 0.00 33 1011.8
20260505111206 78 218 10.0 17.0 0.00 0.00 0.00 34 1011.7
20260505110706 78 183 9.0 18.0 0.00 0.00 0.00 34 1011.8
20260505102206 76 150 7.0 15.0 0.00 0.00 0.00 38 1012.5
20260505101706 75 183 9.0 16.0 0.00 0.00 0.00 39 1012.7
20260505101206 75 160 7.0 16.0 0.00 0.00 0.00 40 1012.6
20260505100707 74 163 6.0 14.0 0.00 0.00 0.00 41 1012.7
20260505100206 74 160 7.0 15.0 0.00 0.00 0.00 40 1012.9
20260505095706 74 168 7.0 15.0 0.00 0.00 0.00 41 1013.0
20260505095206 74 194 9.0 15.0 0.00 0.00 0.00 40 1012.7
20260505094206 74 161 10.0 18.0 0.00 0.00 0.00 39 1012.9
20260505093706 74 178 7.0 14.0 0.00 0.00 0.00 39 1013.0
20260505093206 74 141 6.0 15.0 0.00 0.00 0.00 40 1013.1
20260505092706 74 200 10.0 18.0 0.00 0.00 0.00 40 1013.2
20260505092206 74 169 9.0 15.0 0.00 0.00 0.00 39 1013.2
20260505091706 73 189 8.0 18.0 0.00 0.00 0.00 41 1013.1
20260505091206 73 186 5.0 12.0 0.00 0.00 0.00 42 1013.2
20260505090206 72 209 7.0 12.0 0.00 0.00 0.00 43 1013.3
20260505085206 71 180 5.0 10.0 0.00 0.00 0.00 43 1013.3
20260505084706 71 207 7.0 12.0 0.00 0.00 0.00 43 1013.5
20260505084206 71 161 4.0 10.0 0.00 0.00 0.00 44 1013.4
20260505083706 71 209 6.0 10.0 0.00 0.00 0.00 44 1013.5
20260505083206 70 192 4.0 9.0 0.00 0.00 0.00 45 1013.5
20260505082706 70 198 7.0 15.0 0.00 0.00 0.00 45 1013.4
20260505081206 68 199 6.0 12.0 0.00 0.00 0.00 48 1014.0
20260505080706 67 186 6.0 13.0 0.00 0.00 0.00 46 1013.9
20260505080206 68 196 6.0 13.0 0.00 0.00 0.00 47 1013.9
20260505075206 68 152 5.0 7.0 0.00 0.00 0.00 48 1013.8
20260505074706 67 150 3.0 12.0 0.00 0.00 0.00 50 1013.7
20260505074206 67 179 6.0 12.0 0.00 0.00 0.00 50 1013.9
20260505073706 66 172 3.0 13.0 0.00 0.00 0.00 50 1014.1
20260505073206 66 152 6.0 13.0 0.00 0.00 0.00 51 1014.4
20260505072706 65 173 5.0 12.0 0.00 0.00 0.00 52 1014.2
20260505072206 64 182 7.0 10.0 0.00 0.00 0.00 53 1014.1
20260505071706 64 173 3.0 6.0 0.00 0.00 0.00 53 1014.5
20260505070707 63 213 5.0 9.0 0.00 0.00 0.00 55 1014.3
20260505065706 61 191 4.0 7.0 0.00 0.00 0.00 58 1014.4
20260505065206 60 226 3.0 5.0 0.00 0.00 0.00 59 1014.6
20260505064206 59 203 3.0 5.0 0.00 0.00 0.00 62 1014.7
20260505063706 58 264 2.0 3.0 0.00 0.00 0.00 63 1014.7
20260505063206 57 250 1.0 3.0 0.00 0.00 0.00 64 1014.6
20260505062706 56 297 1.0 2.0 0.00 0.00 0.00 64 1014.6
20260505062206 56 181 2.0 2.0 0.00 0.00 0.00 65 1014.8
20260505061706 55 119 1.0 3.0 0.00 0.00 0.00 66 1014.7
20260505060707 54 255 1.0 3.0 0.00 0.00 0.00 69 1014.7
20260505060206 53 237 1.0 2.0 0.00 0.00 0.00 70 1014.9
20260505055706 52 256 1.0 2.0 0.00 0.00 0.00 71 1015.0
20260505055206 52 289 1.0 2.0 0.00 0.00 0.00 72 1014.8
20260505054706 51 281 1.0 2.0 0.00 0.00 0.00 73 1014.8
20260505054206 50 183 1.0 2.0 0.00 0.00 0.00 73 1014.9
20260505053706 50 305 1.0 2.0 0.00 0.00 0.00 74 1015.0
20260505053206 49 112 1.0 2.0 0.00 0.00 0.00 74 1015.0
20260505052706 49 325 1.0 2.0 0.00 0.00 0.00 74 1014.9
20260505052206 49 338 1.0 2.0 0.00 0.00 0.00 74 1014.8
20260505051707 48 16 0.0 2.0 0.00 0.00 0.00 74 1014.5
20260505051206 48 256 0.0 2.0 0.00 0.00 0.00 74 1014.9
20260505050706 47 266 1.0 2.0 0.00 0.00 0.00 74 1015.0
20260505050206 47 335 1.0 2.0 0.00 0.00 0.00 73 1014.7
20260505041705 46 276 1.0 2.0 0.00 0.00 0.00 72 1014.9
20260505041205 46 269 2.0 3.0 0.00 0.00 0.00 72 1014.9
20260505040706 46 274 1.0 2.0 0.00 0.00 0.00 71 1014.9
20260505040206 46 323 0.0 2.0 0.00 0.00 0.00 71 1015.0
20260505035706 46 60 2.0 2.0 0.00 0.00 0.00 69 1015.1
20260505035206 46 76 1.0 2.0 0.00 0.00 0.00 69 1014.9
20260505034706 46 311 1.0 2.0 0.00 0.00 0.00 69 1015.0
20260505034206 46 273 2.0 3.0 0.00 0.00 0.00 69 1015.0
20260505033706 46 270 2.0 3.0 0.00 0.00 0.00 69 1014.9
20260505033206 47 279 2.0 3.0 0.00 0.00 0.00 69 1015.0
20260505032706 47 204 1.0 2.0 0.00 0.00 0.00 68 1015.1
20260505032206 47 210 1.0 2.0 0.00 0.00 0.00 68 1014.9
20260505031706 47 215 1.0 1.0 0.00 0.00 0.00 67 1014.8
20260505030706 48 317 1.0 2.0 0.00 0.00 0.00 66 1015.0
20260505030206 48 357 0.0 2.0 0.00 0.00 0.00 66 1015.2
20260505025706 48 90 0.0 2.0 0.00 0.00 0.00 65 1015.2
20260505025206 48 155 0.0 2.0 0.00 0.00 0.00 64 1015.1
20260505024205 49 283 1.0 3.0 0.00 0.00 0.00 63 1015.0
20260505023706 49 278 2.0 3.0 0.00 0.00 0.00 62 1015.1
20260505022706 50 357 1.0 3.0 0.00 0.00 0.00 61 1015.1
20260505022206 50 303 1.0 3.0 0.00 0.00 0.00 61 1015.2
20260505021706 51 279 2.0 3.0 0.00 0.00 0.00 60 1015.2
20260505021206 51 266 1.0 2.0 0.00 0.00 0.00 59 1015.3
20260505020706 51 347 1.0 2.0 0.00 0.00 0.00 59 1015.0
20260505020206 52 274 2.0 3.0 0.00 0.00 0.00 58 1015.1
20260505015706 52 291 1.0 3.0 0.00 0.00 0.00 57 1015.3
20260505015207 53 332 1.0 2.0 0.00 0.00 0.00 56 1014.8
20260505014706 53 207 0.0 2.0 0.00 0.00 0.00 56 1015.0
20260505014206 54 18 1.0 2.0 0.00 0.00 0.00 55 1015.1
20260505013706 54 295 1.0 2.0 0.00 0.00 0.00 54 1015.1
20260505013206 55 324 1.0 2.0 0.00 0.00 0.00 53 1015.0
20260505012706 55 276 1.0 2.0 0.00 0.00 0.00 53 1014.9
20260505012206 55 88 1.0 3.0 0.00 0.00 0.00 52 1015.2
20260505011706 56 74 1.0 3.0 0.00 0.00 0.00 52 1014.9
20260505011206 56 51 2.0 5.0 0.00 0.00 0.00 51 1015.0
20260505010706 56 27 1.0 3.0 0.00 0.00 0.00 51 1015.3
20260505010206 56 92 1.0 5.0 0.00 0.00 0.00 51 1015.2
20260505005706 56 101 2.0 3.0 0.00 0.00 0.00 51 1015.2
20260505005206 56 93 2.0 5.0 0.00 0.00 0.00 51 1015.1
20260505004706 56 97 3.0 6.0 0.00 0.00 0.00 51 1015.1
20260505004206 57 99 3.0 5.0 0.00 0.00 0.00 50 1015.1
20260505003706 57 96 1.0 3.0 0.00 0.00 0.00 50 1015.3
20260505003206 57 146 1.0 3.0 0.00 0.00 0.00 50 1015.4
20260505002706 57 138 2.0 5.0 0.00 0.00 0.00 50 1015.3
20260505002206 57 87 2.0 5.0 0.00 0.00 0.00 50 1015.2
20260505001205 58 82 1.0 5.0 0.00 0.00 0.00 50 1015.5
20260505000705 58 105 3.0 5.0 0.00 0.00 0.00 50 1015.3
20260505000205 58 103 3.0 5.0 0.00 0.00 0.00 50 1015.5
20260504235706 58 84 2.0 6.0 0.00 0.00 0.00 49 1015.5
20260504234206 59 87 2.0 5.0 0.00 0.00 0.00 48 1015.7
20260504233206 59 96 2.0 7.0 0.00 0.00 0.00 48 1015.6
20260504232706 59 104 3.0 7.0 0.00 0.00 0.00 48 1015.6
20260504231705 59 98 2.0 5.0 0.00 0.00 0.00 47 1015.5
20260504231206 60 63 2.0 3.0 0.00 0.00 0.00 47 1015.6
20260504230706 60 131 1.0 3.0 0.00 0.00 0.00 47 1015.8
20260504230206 60 118 3.0 6.0 0.00 0.00 0.00 46 1015.6
20260504225706 60 109 4.0 7.0 0.00 0.00 0.00 46 1015.7
20260504225206 60 115 5.0 8.0 0.00 0.00 0.00 46 1015.9
20260504224706 60 117 4.0 7.0 0.00 0.00 0.00 46 1016.1
20260504224205 60 114 5.0 7.0 0.00 0.00 0.00 46 1015.8